User: anonymous   Login
Location: Unspecified
(0.0000°N, 0.0000°E)
Time: 00:58:21
(UTC+00:00)
Language:

Geosat - Orbit

View from above orbital plane
View from above orbital plane
View from above satellite
View from above satellite

Ground track
Ground track

The orbit data is extracted from the following two-line orbital elements,

1 15595U 85021A   21023.55226917 -.00000067  00000-0  22484-4 0  9994
2 15595 108.0357 305.9122 0002683 270.1926  89.8908 14.38184537879368
Epoch (UTC): 23 January 2021 13:15:16
Eccentricity: 0.0002683
inclination: 108.0357°
perigee height: 762 km
apogee height: 766 km
right ascension of ascending node: 305.9122°
argument of perigee: 270.1926°
revolutions per day: 14.38184537
mean anomaly at epoch: 89.8908°
orbit number at epoch: 87936

The dashed part of the orbit path shows where the satellite is in the earth's shadow,  

DLR